This demonstration page uses our WeatherBlox Daily Observations layout. Learn more.

Left ArrowRight Arrow

40.92945, -100.16068

Hourly Observations for June 29, 2016

Temp ( °F °C ) Dew Point ( °F °C ) Humidity (%) Winds ( mph kmh ) Pressure ( in mb ) Visibility ( mi km ) Precip ( " mm )
12:15 am 00:15 Cloudy with Heavy Rain 63 17.3 59 15.1 87 87 N 13 20 30.21 1023 7 11 0.07 1.78
12:35 am 00:35 Cloudy with Rain 63 17.4 59 14.9 85 85 E 3 6 30.15 1021 5 8 0.14 3.56
12:55 am 00:55 Mostly Cloudy with Light Rain 63 17.1 59 15.1 88 88 NNE 10 17 30.09 1019 10 16 0.16 4.06
1:15 am 01:15 Clear 63 17.3 58 14.6 84 84 E 7 11 30.09 1019 10 16 N/A
1:35 am 01:35 Clear 63 17.1 59 15.1 88 88 E 8 13 30.09 1019 10 16 N/A
1:55 am 01:55 Clear 63 17 59 15.1 89 89 E 5 7 30.09 1019 10 16 N/A
2:15 am 02:15 Clear 63 17 59 14.9 88 88 ESE 9 15 30.06 1018 10 16 N/A
2:35 am 02:35 Clear 63 17.3 59 14.9 86 86 SE 9 15 30.06 1018 10 16 N/A
2:55 am 02:55 Clear 62 16.8 59 15 89 89 SSE 8 13 30.06 1018 10 16 N/A
3:15 am 03:15 Clear 62 16.6 59 15 90 90 SE 6 9 30.06 1018 10 16 N/A
3:35 am 03:35 Clear 62 16.4 59 15 91 91 SSE 5 7 30.06 1018 10 16 N/A
3:55 am 03:55 Clear 61 16 58 14.7 92 92 SSE 3 6 30.03 1017 10 16 N/A
4:15 am 04:15 Clear 60 15.8 58 14.6 93 93 SSE 5 7 30.03 1017 10 16 N/A
4:35 am 04:35 Clear 61 16 58 14.6 91 91 N N/A 30.03 1017 10 16 N/A
4:55 am 04:55 Clear 60 15.8 58 14.4 91 91 S 3 6 30.03 1017 10 16 N/A
5:15 am 05:15 Clear 60 15.5 58 14.2 92 92 N N/A 30.03 1017 10 16 N/A
5:35 am 05:35 Clear 59 15.2 57 14.1 93 93 N N/A 30.03 1017 10 16 N/A
5:55 am 05:55 Clear 59 14.9 57 13.9 94 94 N N/A 30.03 1017 7 11 N/A
6:15 am 06:15 Sunny with Mist and Fog 57 14.1 56 13.1 94 94 NNE 5 7 30.03 1017 3 5 N/A
6:35 am 06:35 Sunny with Mist and Fog 58 14.3 56 13.4 94 94 N N/A 30.06 1018 2 3 N/A
6:55 am 06:55 Sunny with Mist and Fog 58 14.5 57 13.7 95 95 N N/A 30.06 1018 3 4 N/A
7:15 am 07:15 Sunny with Mist and Fog 60 15.3 58 14.5 95 95 N N/A 30.06 1018 3 5 N/A
7:35 am 07:35 Sunny with Mist and Fog 61 16.2 60 15.4 95 95 W 5 7 30.06 1018 4 6 N/A
7:55 am 07:55 Sunny 63 17.1 61 16.1 94 94 W 5 7 30.06 1018 7 11 N/A
8:15 am 08:15 Sunny 64 17.6 61 16.1 91 91 WNW 6 9 30.09 1019 10 16 N/A
8:35 am 08:35 Mostly Cloudy 64 17.5 60 15.7 89 89 NNW 6 9 30.09 1019 10 16 N/A
8:55 am 08:55 Partly Cloudy 64 18 60 15.7 87 87 N N/A 30.06 1018 10 16 N/A
9:15 am 09:15 Partly Cloudy 66 18.8 60 15.8 83 83 N N/A 30.06 1018 10 16 N/A
9:35 am 09:35 Sunny 67 19.5 62 16.4 82 82 NNW 3 6 30.06 1018 10 16 N/A
9:55 am 09:55 Sunny 68 20.2 62 16.6 80 80 WNW 3 6 30.06 1018 10 16 N/A
10:15 am 10:15 Sunny 69 20.8 62 16.9 78 78 NW 5 7 30.06 1018 10 16 N/A
10:35 am 10:35 Sunny 71 21.4 61 16.2 72 72 NNW 5 7 30.00 1016 10 16 N/A
10:55 am 10:55 Sunny 71 21.7 61 16.3 72 72 NW 3 6 30.00 1016 10 16 N/A
11:15 am 11:15 Sunny 72 22.3 62 16.6 70 70 NW 3 6 30.00 1016 10 16 N/A
11:35 am 11:35 Sunny 73 22.6 61 16.2 67 67 N N/A 30.00 1016 10 16 N/A
11:55 am 11:55 Sunny 73 23 62 16.5 67 67 N N/A 30.00 1016 10 16 N/A
12:15 pm 12:15 Sunny 75 23.8 63 17.2 67 67 NW 3 6 30.00 1016 10 16 N/A
12:35 pm 12:35 Sunny 76 24.4 64 17.6 66 66 NNW 6 9 29.97 1015 10 16 N/A
12:55 pm 12:55 Sunny 76 24.6 64 17.5 65 65 WNW 5 7 29.97 1015 10 16 N/A
1:15 pm 13:15 Sunny 77 25.1 64 18 65 65 N 6 9 29.97 1015 10 16 N/A
1:35 pm 13:35 Sunny 78 25.4 64 17.6 62 62 N N/A 29.94 1014 10 16 N/A
1:55 pm 13:55 Sunny 79 25.9 65 18.2 63 63 N N/A 29.94 1014 10 16 N/A
2:15 pm 14:15 Sunny 79 26.3 64 17.8 60 60 N N/A 29.94 1014 10 16 N/A
2:35 pm 14:35 Sunny 80 26.5 65 18.2 60 60 E 5 7 29.94 1014 10 16 N/A
2:55 pm 14:55 Sunny 81 27 65 18.4 59 59 ESE 3 6 29.94 1014 10 16 N/A
3:15 pm 15:15 Sunny 81 27.3 64 17.6 55 55 NE 6 9 29.94 1014 10 16 N/A
3:35 pm 15:35 Sunny 82 27.6 63 17.2 53 53 E 6 9 29.88 1012 10 16 N/A
3:55 pm 15:55 Sunny 82 27.8 62 16.9 52 52 ENE 3 6 29.88 1012 10 16 N/A
4:15 pm 16:15 Sunny 83 28.1 63 17 51 51 N N/A 29.88 1012 10 16 N/A
4:35 pm 16:35 Sunny 83 28.1 62 16.6 50 50 ENE 5 7 29.88 1012 10 16 N/A
4:55 pm 16:55 Sunny 83 28.3 62 16.5 49 49 E 5 7 29.88 1012 10 16 N/A
5:15 pm 17:15 Sunny 83 28.3 62 16.4 48 48 N N/A 29.88 1012 10 16 N/A
5:35 pm 17:35 Sunny 83 28.3 61 16.2 48 48 ENE 3 6 29.88 1012 10 16 N/A
5:55 pm 17:55 Sunny 83 28.2 61 15.9 47 47 ENE 3 6 29.88 1012 10 16 N/A
6:15 pm 18:15 Sunny 83 28.3 60 15.8 47 47 E 5 7 29.88 1012 10 16 N/A
6:35 pm 18:35 Sunny 83 28.5 60 15.8 46 46 ESE 3 6 29.88 1012 10 16 N/A
6:55 pm 18:55 Sunny 83 28.2 62 16.8 50 50 SSE 5 7 29.88 1012 10 16 N/A
7:15 pm 19:15 Sunny 82 27.9 63 17 52 52 S 5 7 29.88 1012 10 16 N/A
7:35 pm 19:35 Sunny 82 27.5 63 17.4 54 54 SSW 3 6 29.88 1012 10 16 N/A
7:55 pm 19:55 Sunny 80 26.7 64 17.6 57 57 SSE 3 6 29.88 1012 10 16 N/A
8:15 pm 20:15 Sunny 78 25.8 64 18 62 62 S 3 6 29.91 1013 10 16 N/A
8:35 pm 20:35 Sunny 78 25.3 65 18.5 66 66 SSE 6 9 29.91 1013 10 16 N/A
8:55 pm 20:55 Sunny 76 24.3 65 18.6 71 71 SSE 3 6 29.91 1013 10 16 N/A
9:15 pm 21:15 Clear 75 24 65 18.2 70 70 SSE 5 7 29.91 1013 10 16 N/A
9:35 pm 21:35 Clear 73 22.7 66 18.7 78 78 S 3 6 29.94 1014 10 16 N/A
9:55 pm 21:55 Clear 73 22.6 65 18.6 78 78 N N/A 29.94 1014 10 16 N/A
10:15 pm 22:15 Clear 73 22.6 65 18.2 76 76 N N/A 29.94 1014 10 16 N/A
10:35 pm 22:35 Clear 71 21.5 65 18.6 84 84 SE 3 6 29.94 1014 10 16 N/A
10:55 pm 22:55 Clear 73 22.5 65 18.6 79 79 SSE 5 7 29.94 1014 10 16 N/A
11:15 pm 23:15 Clear 73 22.5 66 18.7 79 79 SSE 3 6 29.94 1014 10 16 N/A
11:35 pm 23:35 Clear 72 22.4 66 18.7 80 80 N N/A 29.94 1014 10 16 N/A
11:55 pm 23:55 Clear 71 21.5 66 19 86 86 ENE 5 7 29.94 1014 10 16 N/A

Powered by AerisWeather